Regional Weather Roundup
Issued by NWS

Home | Current Version | Previous Version | Graphics & Text | Print | Product List | Glossary On
Versions: 1 2 3 4 5 6 7 8 9 10 11 12 13 14 15 16 17 18 19 20 21 22 23 24 25 26 27 28 29 30 31 32 33 34 35 36 37 38 39 40 41 42 43 44 45 46 47 48 49 50
000
ASUS45 KABQ 180210
RWRNM
WEATHER ROUNDUP FOR NEW MEXICO
NATIONAL WEATHER SERVICE ALBUQUERQUE NM
800 PM MDT THU APR 17 2014

NOTE: "FAIR" MEANS FEW OR NO CLOUDS BELOW 12,000 FEET AGL WITH NO
       SIGNIFICANT WEATHER OR OBSTRUCTIONS TO VISION.

      THIS PRODUCT IS RELEASED AS TWO VERSIONS.  ONE VERSION NEAR
      THE TOP OF THE HOUR CONTAINING PRELIMINARY DATA FROM ALBUQUERQUE
      AND OTHER STATIONS.  A FINAL VERSION WITH ADDITIONAL DATA IS
      ISSUED ABOUT 10 MINUTES AFTER THE HOUR.

NMZ501-503-504-510>518-180300-
NORTHWEST PLATEAU/NORTHCENTRAL MOUNTAINS

CITY           SKY/WX    TMP DP  RH WIND       PRES   REMARKS
FARMINGTON     CLEAR     60  20  21 CALM      30.05S
LOS ALAMOS     CLEAR     56  19  23 S8        30.17R
SANTA FE       CLEAR     57  24  28 SE12      30.13R
TAOS           CLEAR     54  21  28 SW13      30.16R
ANGEL FIRE     FAIR      40  34  78 S17       30.21R WCI  32

$$
NMZ402-403-502-505>509-180300-
WESTCENTRAL MOUNTAINS/SOUTHWEST MOUNTAINS

CITY           SKY/WX    TMP DP  RH WIND       PRES   REMARKS
GALLUP         CLEAR     64  18  17 CALM      30.10R
GRANTS         CLEAR     56  14  18 CALM      30.12R
SILVER CITY    CLEAR     66  10  11 S7        30.10R

$$
NMZ407-409-411-412-180300-
SOUTHERN DESERTS

CITY           SKY/WX    TMP DP  RH WIND       PRES   REMARKS
LORDSBURG      FAIR      72  14  11 SE5       29.99S
DEMING         CLEAR     73  15  11 SE8       30.02R
LAS CRUCES     CLEAR     70  18  14 SE5       30.06R
HOLLOMAN AFB   PTCLDY    71  27  19 S12       30.03R
ALAMOGORDO     PTCLDY    68  27  21 S12       30.04S
T OR C         CLEAR     68  21  16 E6        30.03R

$$
NMZ519>523-180300-
CENTRAL VALLEYS/CENTRAL HIGHLANDS

CITY           SKY/WX    TMP DP  RH WIND       PRES   REMARKS
ALBUQUERQUE    PTCLDY    65  20  17 SE5       30.09R
DOUBLE EAGLE   PTCLDY    59  21  23 SE8       30.11R
MORIARTY ARPT  FAIR      54  25  32 SE13      30.17R
CLINES CORNERS CLEAR     49  26  41 SE12      30.19R
BELEN          FAIR      64  22  20 E3        30.08R
SOCORRO        FAIR      66  20  17 S6        30.06S

$$
NMZ524>526-539-540-180300-
SOUTHCENTRAL MOUNTAINS

CITY           SKY/WX    TMP DP  RH WIND       PRES   REMARKS
RUIDOSO        CLEAR     50  25  37 SE9       30.24R

$$
NMZ527>531-180300-
NORTHEAST HIGHLANDS/NORTHEAST PLAINS

CITY           SKY/WX    TMP DP  RH WIND       PRES   REMARKS
LAS VEGAS      CLEAR     45  28  51 S13       30.19R
RATON          PTCLDY    44  36  73 NW6       30.15S
CLAYTON        CLEAR     45  31  58 SE10      30.18R

$$
NMZ532>537-180300-
EASTCENTRAL PLAINS

CITY           SKY/WX    TMP DP  RH WIND       PRES   REMARKS
TUCUMCARI      CLEAR     53  33  46 E9        30.17R
CANNON AFB     CLEAR     53  35  49 E13       30.19R
CLOVIS AIRPORT CLEAR     52  34  50 E10       30.22R

$$
NMZ028-029-538-180300-
SOUTHEAST PLAINS

CITY           SKY/WX    TMP DP  RH WIND       PRES   REMARKS
ROSWELL        CLEAR     65  30  27 NE5       30.11R
ARTESIA        CLEAR     64  28  25 NE5       30.11R
CARLSBAD       CLEAR     69  30  23 NE6       30.08R
HOBBS          CLEAR     63  37  39 E15       30.14R


$$



USA.gov is the U.S. government's official web portal to all federal, state and local government web resources and services.